Theta_e
293 290 287 290 289 287 284 283 282 284 289 287 287 288 292 287 286 284 281 282 282 281 282 283 282 282 282 282 283 283 283 284 283 282 281 281 280 280 280 281 282 282 282 282
290 288 291 291 289 286 284 283 283 286 287 287 285 285 289 287 287 287 285 283 282 281 280 281 281 281 282 281 282 282 283 283 283 282 281 281 279 279 280 281 281 281 281 281
289 290 291 289 286 285 284 283 283 284 285 284 282 280 284 285 287 287 287 285 283 281 280 281 281 280 280 280 281 283 283 283 282 282 281 280 280 279 277 278 279 280 280 280
288 289 288 286 286 286 282 286 285 284 280 277 282 277 280 283 284 283 284 281 282 280 281 281 280 280 280 281 281 282 282 283 283 282 280 277 276 276 277 277 278 278 279 279
290 286 286 285 286 287 286 285 282 281 280 277 278 276 279 279 281 285 282 282 282 281 281 280 280 281 282 282 280 280 281 282 282 281 279 277 276 277 277 277 276 277 278 278
289 288 287 287 286 286 287 283 282 278 277 273 278 277 276 279 282 282 282 282 281 280 279 280 281 281 281 281 280 280 280 280 281 280 278 277 275 276 275 275 275 276 277 277
285 285 286 288 284 285 284 281 277 275 272 275 276 274 283 286 286 283 282 281 280 280 279 279 279 280 280 280 280 280 280 279 279 278 277 276 276 275 275 274 274 275 275 275
283 283 285 287 285 284 282 283 278 270 271 277 276 275 281 282 280 280 281 282 280 279 279 279 279 279 279 279 279 279 279 278 278 277 276 276 275 275 274 274 274 274 274 275
281 281 282 283 283 284 281 278 282 277 261 267 276 277 282 279 278 277 279 279 278 279 278 279 279 279 279 278 279 278 277 277 277 276 275 274 273 273 273 273 274 274 275 275
286 282 281 280 281 280 280 282 277 274 267 265 273 275 280 281 279 276 276 277 278 278 278 278 279 279 279 278 279 277 276 276 276 275 274 274 273 273 273 273 273 273 274 274
285 284 279 279 279 280 277 277 277 277 277 270 267 278 282 284 282 277 277 278 278 278 278 278 278 279 278 278 277 276 275 275 274 274 273 272 272 272 272 272 272 273 273 273
285 283 277 278 277 279 279 280 281 276 272 272 273 279 283 282 283 278 278 279 278 278 278 278 278 278 277 276 275 274 274 273 274 273 272 271 271 271 270 271 272 273 272 273
285 281 273 277 278 277 276 278 280 278 277 277 273 279 280 280 278 278 278 278 278 277 277 277 277 276 276 275 274 273 272 272 272 271 270 270 270 269 270 270 271 272 272 271
292 282 281 280 281 278 275 276 278 280 276 279 280 281 286 287 284 279 277 277 277 277 277 276 275 275 274 274 272 271 270 270 270 269 269 268 269 269 270 270 270 270 270 269
286 282 281 286 287 281 281 283 276 276 280 279 283 283 286 289 290 287 283 278 277 276 277 276 275 274 273 272 271 270 269 269 269 268 268 268 269 269 270 269 269 269 268 268
281 282 281 281 283 281 280 284 283 280 282 282 283 282 290 292 292 290 281 277 276 277 277 277 276 275 274 273 271 271 269 268 268 267 268 268 268 269 268 268 267 267 267 266
277 277 275 279 281 280 277 283 284 285 286 285 280 285 290 289 282 281 278 278 277 277 277 276 275 274 273 270 271 267 267 268 267 267 267 267 267 266 266 266 265 265 265 266
277 277 279 277 277 273 285 283 286 284 286 287 287 288 289 288 280 281 279 278 277 278 276 275 273 270 270 269 268 267 267 267 266 266 266 265 265 264 264 263 263 264 265 265
286 282 280 278 278 282 285 285 280 279 284 286 285 287 288 278 276 276 277 278 278 277 275 273 271 270 268 267 267 266 265 265 264 264 264 263 263 261 261 260 262 264 263 263
282 285 284 281 276 276 285 278 279 281 276 289 287 285 285 277 273 281 275 275 274 273 272 270 270 269 267 266 266 264 264 263 262 262 262 262 262 260 260 261 263 263 263 264
278 279 278 280 279 282 287 277 279 275 283 282 284 284 277 277 281 277 275 273 273 272 269 269 268 266 265 265 264 263 262 262 261 261 261 260 260 259 260 262 262 262 262 263
278 277 276 279 278 276 280 276 280 285 279 281 280 278 278 277 275 275 275 271 271 269 269 268 267 265 265 264 263 261 261 261 260 259 258 257 257 259 262 260 261 261 261 261
282 284 282 282 281 283 282 288 285 283 281 279 279 279 279 276 275 275 272 270 269 269 269 268 266 264 263 262 262 260 259 260 258 255 254 255 259 260 260 259 260 260 261 261
284 284 283 279 286 283 281 283 281 282 281 279 279 279 279 277 275 274 272 271 269 269 267 265 264 263 261 260 260 259 258 257 253 252 255 259 258 258 259 260 261 260 261 261
289 283 284 283 286 284 287 286 284 282 281 280 279 279 279 277 275 274 272 271 269 268 266 265 264 262 260 259 258 257 256 254 253 254 256 257 257 257 259 260 259 261 263 265
286 287 283 284 291 290 291 289 285 281 280 281 279 278 279 279 276 275 273 271 268 266 264 263 262 260 258 257 257 255 252 251 250 252 254 255 256 256 258 258 258 263 265 267
Wind_Speed
2 4 5 9 8 4 2 4 8 5 5 5 9 13 22 11 12 12 11 14 15 15 8 9 8 7 6 4 3 3 3 3 1 2 3 4 5 6 4 4 6 9 9 10
4 6 5 1 5 3 4 4 9 10 2 7 9 11 19 9 12 20 21 19 17 12 9 9 8 7 5 4 5 3 3 3 3 1 0 1 2 3 4 3 4 6 8 10
7 3 4 3 3 3 5 6 6 8 7 6 8 6 11 3 8 7 13 14 15 18 15 12 10 8 7 5 6 3 3 4 4 2 1 2 4 3 3 5 6 6 10 9
6 1 5 5 5 7 6 4 3 5 4 5 4 12 5 5 13 10 13 16 18 16 11 12 10 8 8 7 6 5 4 5 4 4 3 3 3 6 6 8 8 9 10 11
8 8 6 6 8 8 9 2 2 3 5 4 4 5 8 2 11 19 15 19 18 17 15 13 10 9 8 7 6 4 4 6 5 5 4 4 5 7 7 8 12 12 10 10
6 0 5 7 2 4 4 2 2 4 2 2 6 9 5 6 10 7 6 16 16 17 13 11 8 7 6 5 4 4 4 5 6 5 6 6 7 9 10 11 11 10 10 10
1 5 1 3 3 2 4 5 5 6 3 9 3 4 13 11 14 10 9 12 15 15 14 12 9 8 6 6 5 3 3 7 6 6 6 7 8 9 11 11 10 13 11 11
5 10 9 6 7 7 6 8 8 8 5 8 1 12 9 7 7 7 8 10 12 13 13 12 10 8 7 6 5 4 5 7 6 6 7 6 7 6 8 10 11 11 12 12
7 9 1 1 1 3 5 5 1 2 2 4 6 9 9 5 9 5 7 10 15 15 14 12 9 8 7 6 6 4 5 7 6 7 6 7 6 8 11 12 12 11 13 13
6 6 1 2 1 3 4 5 5 3 3 8 8 11 17 9 12 5 8 13 12 12 11 10 7 7 6 5 4 3 5 6 6 6 6 8 9 9 11 11 15 15 16 17
5 4 3 4 9 11 3 4 1 3 6 7 4 15 8 9 11 12 15 14 14 15 14 10 8 7 5 4 3 5 4 6 6 6 8 9 10 11 11 12 14 15 17 18
7 6 6 14 1 2 2 10 14 8 8 4 3 28 10 8 10 11 13 14 12 12 11 8 8 7 6 4 4 4 4 5 6 6 8 10 11 11 12 13 15 16 18 18
11 5 2 7 3 2 7 7 7 2 2 18 11 24 5 4 1 10 10 11 12 12 9 8 7 7 6 5 3 4 5 6 7 7 9 11 11 11 13 14 15 17 18 19
15 8 11 18 11 8 7 11 12 17 9 23 30 34 35 27 22 9 10 12 14 14 13 10 7 7 4 3 3 5 6 6 6 8 10 11 11 12 14 16 16 17 18 19
10 16 9 24 20 6 7 15 15 19 28 20 39 32 33 31 30 13 17 12 13 15 15 11 8 6 5 3 4 5 5 5 7 9 9 11 13 14 14 16 17 17 18 18
4 11 7 17 8 6 14 29 20 26 30 27 31 42 39 37 26 23 11 14 16 16 14 11 8 6 4 2 4 5 6 6 7 8 11 12 14 15 15 16 18 18 19 19
9 7 6 22 4 6 17 22 28 29 32 21 30 42 38 29 13 10 7 14 17 17 16 12 9 6 4 4 3 4 6 6 8 10 11 12 13 15 16 17 18 18 19 18
9 6 5 7 5 15 24 4 13 25 27 23 27 32 26 20 1 4 11 15 15 16 14 11 8 6 4 3 3 4 6 6 8 9 10 12 14 15 16 17 17 18 17 19
16 11 9 11 16 23 32 15 10 11 37 14 27 30 28 4 3 6 5 10 15 13 11 9 8 6 5 3 1 3 5 6 8 9 12 13 14 15 16 17 18 17 18 18
13 12 17 12 15 23 36 4 7 8 22 14 21 24 15 10 4 13 10 8 10 12 11 11 9 7 5 2 2 4 6 7 7 11 13 14 13 14 16 17 18 17 16 17
6 8 24 22 22 10 26 10 7 7 24 4 9 11 12 11 7 5 15 9 12 12 12 10 8 6 5 4 3 4 5 7 10 11 12 13 13 14 15 16 15 16 16 16
16 12 9 10 11 23 13 6 18 14 2 8 6 9 13 7 8 16 16 15 15 15 12 10 8 7 5 5 4 5 6 9 10 11 12 12 12 11 12 15 13 15 14 15
16 21 11 14 12 3 15 24 24 6 8 7 7 7 14 13 10 17 15 16 13 14 11 9 8 9 6 5 5 4 7 9 11 10 11 11 12 11 12 14 14 13 13 13
12 6 11 3 26 20 15 12 6 10 8 6 7 13 16 16 17 14 15 14 13 12 11 9 9 7 6 4 5 6 7 8 7 9 11 10 11 12 12 10 10 11 12 13
13 16 20 16 27 5 16 22 19 15 8 8 9 13 18 17 17 18 14 14 13 12 10 9 8 8 7 5 5 5 6 7 7 8 10 9 9 10 11 11 10 11 11 16
14 20 15 19 29 19 31 15 21 19 20 18 17 11 13 18 18 14 13 13 14 13 11 9 9 9 7 5 4 4 3 5 5 7 8 7 8 9 9 10 11 17 22 26
Wind_Direction
21 65 232 229 191 180 205 232 247 245 236 226 235 251 271 207 217 221 201 199 202 202 195 184 182 180 151 150 183 266 283 271 262 249 324 3 352 326 328 303 313 325 317 323
28 230 215 175 142 182 219 272 269 282 244 196 259 247 272 211 222 213 207 202 201 193 186 187 193 195 179 181 208 261 306 318 303 266 299 249 280 266 269 275 292 290 302 302
174 229 128 182 177 200 220 198 245 240 336 277 320 257 248 280 257 240 219 208 205 194 186 189 194 197 190 206 212 251 292 279 275 290 308 278 275 281 288 306 297 294 298 297
228 233 183 212 238 155 277 212 270 293 349 247 42 291 256 252 270 224 214 200 201 189 188 188 189 192 198 214 205 225 270 293 291 337 321 308 295 309 306 301 300 299 308 305
243 169 194 210 217 161 223 109 213 217 245 332 227 252 257 58 276 260 215 215 204 192 186 185 190 193 205 202 210 220 279 304 304 300 290 292 294 297 302 298 299 310 312 299
246 46 179 214 142 166 112 22 53 54 77 286 225 189 238 203 217 256 218 213 193 189 182 186 190 188 213 219 228 228 279 295 296 296 295 278 273 292 299 302 307 306 300 300
290 218 220 172 144 87 101 70 323 326 341 236 144 236 251 247 249 236 229 207 201 187 180 183 183 194 216 234 243 226 259 287 290 280 286 278 270 272 287 297 300 297 299 300
205 280 174 182 206 178 171 164 165 244 238 284 202 246 250 237 282 283 260 212 194 187 182 185 186 193 209 234 239 221 282 275 280 283 276 267 261 274 286 289 290 287 287 287
172 266 127 200 92 129 170 184 163 58 98 344 239 286 291 290 280 276 212 177 192 190 185 184 189 191 206 225 218 221 258 267 266 265 269 271 274 292 288 287 289 288 283 288
210 287 152 121 120 23 146 159 87 9 266 266 266 273 246 244 262 192 222 218 201 190 185 190 185 194 210 210 204 249 258 267 278 287 278 300 292 288 291 289 290 289 290 292
134 150 201 126 206 174 129 222 154 144 169 201 298 267 202 213 217 203 213 213 200 198 191 185 186 193 194 182 226 268 295 309 300 293 298 291 297 298 292 290 293 293 292 294
201 153 209 214 355 9 230 199 180 189 232 242 139 261 167 195 234 182 213 209 204 201 186 180 182 181 180 210 244 288 313 293 292 293 294 296 298 297 297 297 296 297 296 295
174 219 300 321 11 353 224 207 218 46 95 229 214 261 69 356 280 211 216 206 202 197 182 174 174 183 197 219 266 304 294 279 287 300 300 298 298 304 304 303 302 301 298 298
162 185 180 230 218 127 187 214 207 212 232 253 240 264 267 269 261 229 218 204 197 191 181 182 182 185 188 217 256 280 285 286 292 301 297 302 311 315 312 306 305 305 301 298
178 237 192 246 250 173 220 232 190 207 229 233 263 261 266 268 269 255 223 202 189 187 182 180 177 178 190 226 252 271 269 289 292 293 307 317 321 317 310 310 308 305 301 298
180 244 169 256 227 200 264 256 236 229 246 249 258 266 265 268 284 275 221 192 191 194 178 171 166 160 167 197 269 287 299 279 309 317 328 326 320 317 313 312 311 307 303 302
164 170 145 250 175 80 270 254 237 246 244 232 245 250 265 276 246 235 202 194 194 185 170 166 162 155 162 213 283 274 281 319 340 329 324 316 319 315 316 314 311 308 305 301
182 177 155 245 114 231 261 173 200 222 252 227 244 255 254 258 285 249 197 188 185 174 156 149 139 148 185 183 233 280 339 340 330 323 323 324 321 319 317 313 310 306 309 310
203 184 214 220 228 260 287 231 186 188 272 201 226 246 253 139 58 264 204 180 173 156 139 131 129 140 162 159 353 345 342 339 336 332 326 320 325 321 315 311 309 315 313 310
206 234 222 211 234 239 252 109 130 118 269 260 209 232 231 133 211 250 159 135 121 115 124 133 148 145 129 108 44 11 359 345 344 336 323 319 320 313 308 305 315 315 309 310
179 206 222 228 238 242 257 153 151 166 256 109 184 207 150 189 209 131 133 117 128 131 134 136 131 129 134 101 50 31 360 355 338 327 319 319 315 310 301 312 313 313 313 314
186 181 205 228 241 247 135 84 187 220 154 164 178 173 177 144 130 147 148 142 141 142 145 140 141 138 114 87 55 29 12 345 336 326 320 314 310 308 315 314 316 318 316 317
217 208 200 206 213 160 187 216 215 168 167 193 174 175 161 147 158 157 151 151 152 147 144 149 141 129 116 76 65 41 3 348 334 323 312 306 310 316 318 320 323 324 326 328
228 173 231 131 245 237 216 222 203 189 196 174 182 169 164 157 153 157 152 154 151 150 152 150 141 129 117 83 65 48 10 342 324 311 312 320 324 328 327 324 327 325 330 330
194 148 213 243 267 327 254 218 208 201 171 167 169 171 168 152 165 158 158 156 153 149 147 145 137 129 111 89 70 42 12 342 333 323 325 327 325 334 326 326 327 332 334 341
183 202 190 223 236 215 252 205 190 185 193 193 166 166 169 160 161 161 161 154 150 149 144 139 132 128 125 110 77 39 357 340 327 329 335 326 331 336 326 325 326 338 345 348